Satellite: ASTRA 1B
Catalog number: 21139
Epoch time:      103108.00000000
Element set:     168 
Inclination:        0.0122 deg
RA of node:       319.8851 deg
Eccentricity:    0.0002995
Arg of perigee:    65.1991 deg
Mean anomaly:     199.7843 deg
Mean motion:    1.00273184 rev/day
Decay rate:    1.1399E-006 rev/day^2
Epoch rev:            3277
Checksum:              264

Satellite: METEOSAT 5 (MO
Catalog number: 21140
Epoch time:      103112.99549826
Element set:     809 
Inclination:        5.7742 deg
RA of node:        69.4851 deg
Eccentricity:    0.0001275
Arg of perigee:    30.6310 deg
Mean anomaly:     171.6764 deg
Mean motion:    1.00272408 rev/day
Decay rate:    7.9999E-008 rev/day^2
Epoch rev:            4668
Checksum:              317

Satellite: NOAA 12
Catalog number: 21263
Epoch time:      103113.44506736
Element set:     53 
Inclination:       98.6336 deg
RA of node:       102.0332 deg
Eccentricity:    0.0012172
Arg of perigee:   191.8092 deg
Mean anomaly:     168.2804 deg
Mean motion:   14.25125829 rev/day
Decay rate:    1.9399E-006 rev/day^2
Epoch rev:           62031
Checksum:              282

Satellite: OSCAR 22 (UoSA
Catalog number: 21575
Epoch time:      103112.56659930
Element set:     780 
Inclination:       98.1479 deg
RA of node:       101.5494 deg
Eccentricity:    0.0006866
Arg of perigee:   311.3791 deg
Mean anomaly:      48.6808 deg
Mean motion:   14.39199956 rev/day
Decay rate:    1.7200E-006 rev/day^2
Epoch rev:           61734
Checksum:              343

Satellite: METEOR 3-5
Catalog number: 21655
Epoch time:      103111.97067702
Element set:     518 
Inclination:       82.5594 deg
RA of node:       354.7881 deg
Eccentricity:    0.0014549
Arg of perigee:    44.6006 deg
Mean anomaly:     315.6284 deg
Mean motion:   13.16981200 rev/day
Decay rate:    5.1000E-007 rev/day^2
Epoch rev:           56169
Checksum:              306

Satellite: UARS
Catalog number: 21701
Epoch time:      103112.61875495
Element set:     876 
Inclination:       56.9795 deg
RA of node:       136.8268 deg
Eccentricity:    0.0005032
Arg of perigee:    82.7326 deg
Mean anomaly:     277.4285 deg
Mean motion:   15.02991611 rev/day
Decay rate:    3.2600E-006 rev/day^2
Epoch rev:           63519
Checksum:              317

Satellite: EUTELSAT 2-F3
Catalog number: 21803
Epoch time:      103110.92016368
Element set:     542 
Inclination:        2.7502 deg
RA of node:        88.4519 deg
Eccentricity:    0.0004770
Arg of perigee:   282.3090 deg
Mean anomaly:     190.7248 deg
Mean motion:    1.00270718 rev/day
Decay rate:    1.1900E-006 rev/day^2
Epoch rev:            3761
Checksum:              265

Satellite: INMARSAT 2-F3
Catalog number: 21814
Epoch time:      103113.43588039
Element set:     651 
Inclination:        1.8740 deg
RA of node:        60.2586 deg
Eccentricity:    0.0003106
Arg of perigee:   346.4078 deg
Mean anomaly:     179.2764 deg
Mean motion:    1.00272399 rev/day
Decay rate:    9.6999E-007 rev/day^2
Epoch rev:            4153
Checksum:              311

Satellite: INMARSAT 2-F4
Catalog number: 21940
Epoch time:      103105.69487797
Element set:     588 
Inclination:        2.4167 deg
RA of node:        21.9639 deg
Eccentricity:    0.0002247
Arg of perigee:   353.4247 deg
Mean anomaly:     187.1768 deg
Mean motion:    1.00267799 rev/day
Decay rate:   -3.5600E-006 rev/day^2
Epoch rev:            4024
Checksum:              322

Satellite: EUTELSAT 2-F4
Catalog number: 22028
Epoch time:      103110.98288196
Element set:     341 
Inclination:        1.8699 deg
RA of node:        91.6949 deg
Eccentricity:    0.0006284
Arg of perigee:   280.5512 deg
Mean anomaly:     177.8938 deg
Mean motion:    1.00271843 rev/day
Decay rate:   -1.1099E-006 rev/day^2
Epoch rev:            3239
Checksum:              321

Satellite: OSCAR 23 (KITS
Catalog number: 22077
Epoch time:      103111.91796176
Element set:     192 
Inclination:       66.0840 deg
RA of node:       355.1596 deg
Eccentricity:    0.0015540
Arg of perigee:   260.5833 deg
Mean anomaly:      99.3429 deg
Mean motion:   12.86410669 rev/day
Decay rate:   -3.7000E-007 rev/day^2
Epoch rev:           50232
Checksum:              305

Satellite: ASTRA 1C
Catalog number: 22653
Epoch time:      103108.00000000
Element set:     796 
Inclination:        0.0122 deg
RA of node:       319.8851 deg
Eccentricity:    0.0002995
Arg of perigee:    65.1991 deg
Mean anomaly:     199.7728 deg
Mean motion:    1.00273184 rev/day
Decay rate:    1.1399E-006 rev/day^2
Epoch rev:            3147
Checksum:              271

Satellite: METEOR 2-21
Catalog number: 22782
Epoch time:      103112.59712628
Element set:     575 
Inclination:       82.5486 deg
RA of node:       164.9236 deg
Eccentricity:    0.0023062
Arg of perigee:   165.5599 deg
Mean anomaly:     194.6237 deg
Mean motion:   13.83537398 rev/day
Decay rate:    1.4800E-006 rev/day^2
Epoch rev:           48680
Checksum:              343

Satellite: KITSAT B
Catalog number: 22825
Epoch time:      103112.91196788
Element set:     538 
Inclination:       98.2660 deg
RA of node:       139.3623 deg
Eccentricity:    0.0009618
Arg of perigee:    71.2429 deg
Mean anomaly:     288.9797 deg
Mean motion:   14.28965447 rev/day
Decay rate:    6.8999E-007 rev/day^2
Epoch rev:           49892
Checksum:              494

Satellite: POSAT 1
Catalog number: 22826
Epoch time:      103112.58227189
Element set:     341 
Inclination:       98.2698 deg
RA of node:       140.1933 deg
Eccentricity:    0.0010085
Arg of perigee:    72.3290 deg
Mean anomaly:     287.8991 deg
Mean motion:   14.29190596 rev/day
Decay rate:    9.5000E-007 rev/day^2
Epoch rev:           49892
Checksum:              329

Satellite: ITAMSAT
Catalog number: 22828
Epoch time:      103113.10755900
Element set:     478 
Inclination:       98.2630 deg
RA of node:       140.9548 deg
Eccentricity:    0.0010973
Arg of perigee:    51.8599 deg
Mean anomaly:     308.3568 deg
Mean motion:   14.29529265 rev/day
Decay rate:    7.5000E-007 rev/day^2
Epoch rev:           46720
Checksum:              316

Satellite: EYESAT A
Catalog number: 22829
Epoch time:      103113.52481039
Element set:     505 
Inclination:       98.2650 deg
RA of node:       141.9899 deg
Eccentricity:    0.0010849
Arg of perigee:    51.0144 deg
Mean anomaly:     309.2014 deg
Mean motion:   14.29801148 rev/day
Decay rate:    1.4099E-006 rev/day^2
Epoch rev:           49919
Checksum:              307

Satellite: METEOSAT 6
Catalog number: 22912
Epoch time:      103110.98704862
Element set:     766 
Inclination:        2.8246 deg
RA of node:        82.1213 deg
Eccentricity:    0.0002856
Arg of perigee:   322.3450 deg
Mean anomaly:     169.6545 deg
Mean motion:    1.00284576 rev/day
Decay rate:    5.9000E-007 rev/day^2
Epoch rev:            3291
Checksum:              283

Satellite: GOES 8
Catalog number: 23051
Epoch time:      103111.15152267
Element set:     698 
Inclination:        0.4497 deg
RA of node:        99.5345 deg
Eccentricity:    0.0004745
Arg of perigee:   332.4711 deg
Mean anomaly:     115.5238 deg
Mean motion:    1.00256943 rev/day
Decay rate:   -2.5599E-006 rev/day^2
Epoch rev:            4042
Checksum:              289

Satellite: ASTRA 1D
Catalog number: 23331
Epoch time:      103110.76242513
Element set:     834 
Inclination:        0.0732 deg
RA of node:       159.7433 deg
Eccentricity:    0.0002121
Arg of perigee:   200.5301 deg
Mean anomaly:     146.8081 deg
Mean motion:    1.00275176 rev/day
Decay rate:    1.2900E-006 rev/day^2
Epoch rev:            3148
Checksum:              224

Satellite: RADIO ROSTO
Catalog number: 23439
Epoch time:      103111.91017822
Element set:     709 
Inclination:       64.8141 deg
RA of node:       300.6750 deg
Eccentricity:    0.0146417
Arg of perigee:   102.9378 deg
Mean anomaly:     258.7939 deg
Mean motion:   11.27548906 rev/day
Decay rate:   -2.3999E-007 rev/day^2
Epoch rev:           34262
Checksum:              321

Satellite: NOAA 14
Catalog number: 23455
Epoch time:      103113.47283671
Element set:     603 
Inclination:       99.1827 deg
RA of node:       133.7185 deg
Eccentricity:    0.0010132
Arg of perigee:    53.5393 deg
Mean anomaly:     306.6711 deg
Mean motion:   14.13321411 rev/day
Decay rate:    7.4000E-007 rev/day^2
Epoch rev:           42850
Checksum:              268

Satellite: HIMAWARI 5 (GM
Catalog number: 23522
Epoch time:      103111.23816611
Element set:     198 
Inclination:        1.9037 deg
RA of node:        83.4254 deg
Eccentricity:    0.0001137
Arg of perigee:   300.1263 deg
Mean anomaly:      51.1612 deg
Mean motion:    1.00277371 rev/day
Decay rate:   -2.9099E-006 rev/day^2
Epoch rev:            2950
Checksum:              254

Satellite: HOT BIRD 1
Catalog number: 23537
Epoch time:      103099.84635997
Element set:     540 
Inclination:        0.0227 deg
RA of node:       231.2698 deg
Eccentricity:    0.0003930
Arg of perigee:   159.6337 deg
Mean anomaly:     124.4056 deg
Mean motion:    1.00270936 rev/day
Decay rate:    8.8000E-007 rev/day^2
Epoch rev:            2947
Checksum:              297

Satellite: GOES 9
Catalog number: 23581
Epoch time:      103113.50818922
Element set:     631 
Inclination:        0.1121 deg
RA of node:       275.2187 deg
Eccentricity:    0.0013988
Arg of perigee:   244.8772 deg
Mean anomaly:      29.8004 deg
Mean motion:    1.00057184 rev/day
Decay rate:   -2.0800E-006 rev/day^2
Epoch rev:            2900
Checksum:              266

